Starlink 11530

operational
NORAD ID: 62562 Int'l Des: 2025-006 Owner: SPXS Country: US Constellation: starlink
LEOCIRCULAR

About Starlink 11530

Description loading...

Live Position

Loading 3D Globe...

Upcoming Passes

Altitude History

Altitude vs Time

uPlot chart will show altitude changes over time

Two-Line Element Set

1 62562U 25006J 25346.93401163 .00277977 00000-0 20850-2 0 9997
2 62562 42.9988 303.2176 0001625 247.3770 112.6926 15.70990573 52953
Epoch: Dec 12, 2025 • Age: 15 hours

Current Status

Altitude 356.1 km
Velocity 7.70 km/s
Sub-Earth Point 26.98°N, 41.98°E
Launch Date Jan 10, 2025
Age 0.9 years
Type internet

Technical Details

Classification Payload
Mass 960.00 kg
Dry Mass 910.00 kg
Total Mass 960.00 kg
Length 0.30 m
Diameter 4.10 m
Span 29.00 m
Shape Box + pan
Manufacturer SPXS
Bus Type Starlink V2MD
Phase Status In Orbit
Owner/State SPXS/US

Large Constellations

Loading constellations...